www.pogodaiklimat.ru

Погода и климат >> Архив погоды >> Антарктида >> Дюмон-д`Юрвиль


ПОГОДА на Дюмон-д`Юрвиле

  • Прогноз погоды на Дюмон-д`Юрвиле
  • Монитор погоды на Дюмон-д`Юрвиле

АРХИВ ПОГОДЫ на Дюмон-д`Юрвиле

Время (UTC), дата Ветер
(напр.,м/с)
 
Видим.   Явления Облачность Т
(С)
Тd
(С)
f
(%)
Тe
(С)
Тes
(С)
Комфортность P
(гПа)
Po
(гПа)
Тmin
(С)
Tmax
(С)
R
(мм)
R24
(мм)
S
(см)
03 17.02 В 3 30 км 5/0
[Ci fib]
+1.6 -8.5 47 -2 +4 999.3 994.0
06 17.02 В 2 30 км 5/0
[Ci fib]
+1.9 -9.7 42 0 +4 998.2 992.9
09 17.02 В 8-13
{19}
40 км 4/0
[Ci fib]
-0.2 -11.9 41 -7 -7 997.5 992.2
12 17.02 ЮВ 13-23
{24}
н/о н/о -3.4 -14.8 41 -13 -13 997.5 992.1 -3.6 +2.8
15 17.02 ЮВ 16-26
{26}
н/о н/о -5.2 -15.9 43 -16 -16 998.0 992.6
18 17.02 ЮВ 15-26
{30}
н/о н/о -7.8 -16.4 50 -19 -19 998.8 993.3
21 17.02 ЮВ 19-28
{28}
30 км 5/0
[]
-8.6 -17.2 50 -21 -21 998.9 993.4
00 18.02 ЮВ 22-30
{32}
25 км 9/9 1080 м
[Sc]
-7.6 -14.9 56 -21 -21 997.5 992.0 -9.2 -2.8
03 18.02 ЮВ 19-27
{34}
20 км 9/9 1380 м
[Sc]
-5.4 -13.0 55 -17 -17 997.0 991.6
06 18.02 ЮВ 20-31
{34}
20 км 10/10 1200 м
[Sc]
-5.1 -12.8 55 -17 -17 996.3 990.9
09 18.02 ЮВ 22-30
{32}
20 км 10/10 1380 м
[Sc]
-6.1 -14.1 53 -19 -19 996.5 991.0
12 18.02 ЮВ 20-29
{32}
н/о н/о -6.7 -14.3 55 -19 -19 996.7 991.2 -8.2 -4.7
15 18.02 ЮВ 18-26
{32}
н/о н/о -6.4 -13.5 57 -18 -18 996.2 990.7
18 18.02 ЮВ 16-26
{32}
н/о н/о -6.5 -12.2 64 -18 -18 996.0 990.5
21 18.02 ЮВ 17-26
{28}
3000 м 10/10 300 м
[]
-6.4 -10.3 74 -19 -19 996.1 990.6
00 19.02 ЮВ 17-27
{28}
5000 м дымка 10/10 480 м
[Frnb]
-5.6 -10.6 68 -17 -17 996.2 990.8 -7.3 -5.5
03 19.02 В 15-24
{26}
8000 м 10/10 600 м
[Frnb]
-4.5 -11.1 60 -15 -15 996.8 991.4
06 19.02 ЮВ 15-23
{26}
10 км 10/10 1000 м
[Sc Ac As]
-4.3 -11.6 57 -15 -15 997.1 991.7
09 19.02 ЮВ 13-22
{23}
15 км 9/9 1500 м
[Sc Ac As]
-5.3 -12.9 55 -16 -16 997.9 992.5
12 19.02 ЮВ 15-23
{25}
н/о н/о -6.1 -12.8 59 -17 -17 998.7 993.2 -6.2 -3.9
15 19.02 В 17-26
{26}
н/о н/о -6.2 -11.3 67 -18 -18 999.2 993.7
18 19.02 В 16-23
{26}
н/о н/о -5.2 -9.3 73 -17 -17 1000.1 994.6
21 19.02 В 14-23
{25}
4000 м 10/10 300 м
[]
-4.9 -9.2 72 -16 -16 1002.3 996.8
00 20.02 В 11-17
{25}
5000 м слаб. снег 10/10 480 м
[Frnb]
-3.7 -8.8 68 -13 -13 1004.0 998.6 -6.6 -3.7
03 20.02 В 13-20
{21}
5000 м слаб. снег 10/10 480 м
[Frnb]
-3.3 -9.1 64 -13 -13 1004.8 999.4
06 20.02 В 12-20
{23}
3000 м слаб. снег 10/10 400 м
[Frnb]
-3.4 -8.3 69 -13 -13 1005.2 999.8
09 20.02 В 10-15
{20}
3000 м слаб. снег 10/10 400 м
[Frnb]
-3.4 -7.7 72 -12 -12 1006.2 1000.7
12 20.02 В 9-15
{20}
н/о н/о -3.9 -7.9 74 -13 -13 1007.4 1001.9 -3.9 -2.7
15 20.02 ЮВ 9
{15}
н/о н/о -5.1 -10.7 65 -14 -14 1007.7 1002.2
18 20.02 ЮВ 11-18
{19}
н/о н/о -6.6 -12.7 62 -17 -17 1007.3 1001.8
21 20.02 Ю 13-21
{22}
30 км 10/10 1500 м
[]
-7.3 -14.8 55 -18 -18 1007.0 1001.5
00 21.02 ЮВ 7
{22}
30 км 8/0
[Ac trans Ci]
-4.7 -14.6 46 -12 -11 1007.5 1002.0 -7.8 -3.9
03 21.02 ЮВ 9-14
{16}
50 км 8/0
[Ac trans Ci]
-4.2 -14.4 45 -12 -12 1006.6 1001.1
06 21.02 ЮВ 6
{19}
50 км 8/0
[Ac cuf]
-3.6 -15.0 41 -10 -9 1005.6 1000.1
09 21.02 ЮВ 9-15
{20}
40 км 9/0
[Ac trans]
-5.8 -15.6 46 -15 -15 1004.7 999.2
12 21.02 Ю 16-25
{25}
н/о н/о -8.5 -17.6 48 -21 -21 1003.4 997.9 -8.5 -2.1
15 21.02 ЮВ 8
{27}
н/о н/о -9.0 -17.5 50 -18 -18 1003.0 997.4
18 21.02 ЮВ 12
{27}
н/о н/о -9.4 -19.2 45 -20 -20 1001.7 996.1
21 21.02 ЮВ 2 60 км 6/0
[]
-8.2 -18.6 43 -12 -12 1001.4 995.9
00 22.02 В 5 70 км 4/0
[Ci fib]
-4.7 -17.2 37 -11 -8 1000.9 995.4 -9.7 -4.4
03 22.02 В 7
{14}
70 км 1/0
[Ci fib]
-3.9 -15.2 41 -11 -10 1000.3 994.9
06 22.02 В 4
{15}
60 км 1/0
[Ci fib]
-4.8 -13.4 51 -11 -8 1000.6 995.1
09 22.02 СЗ 1 н/о н/о -4.9 -13.5 51 -7 -7 1000.3 994.8
12 22.02 Ю 4 н/о н/о -7.8 -17.7 45 -14 -14 1000.5 995.0 -8.1 -3.4
15 22.02 ЮВ 6 н/о н/о -9.4 -20.2 41 -18 -18 1000.2 994.7
18 22.02 Ю 5 н/о н/о -10.6 -21.1 42 -18 -18 1001.0 995.4
21 22.02 ЮВ 2 25 км ясно -9.7 -21.7 37 -14 -13 1001.7 996.1
00 23.02 Ю 2 25 км ясно -7.3 -20.2 35 -10 -5 1002.0 996.5 -10.9 -7.0
03 23.02 В 4 50 км ясно -4.9 -18.7 33 -10 -5 1002.1 996.6
06 23.02 СЗ 2 50 км 1/0
[Ac lent]
-3.3 -17.3 33 -6 -2 1002.1 996.7
09 23.02 СВ 1 30 км 5/0
[Ac As Cs]
-5.3 -16.8 40 -7 -7 1000.8 995.3
12 23.02 В 5 н/о н/о -8.8 -17.8 48 -16 -16 999.7 994.2 -8.8 -3.0
15 23.02 В 8 н/о н/о -9.0 -19.6 42 -18 -18 997.1 991.6
18 23.02 В 5 н/о н/о -8.2 -19.4 40 -15 -15 995.3 989.8
21 23.02 В 4 25 км 9/9 1500 м
[]
-7.4 -18.4 41 -14 -14 995.1 989.6
00 24.02 В 6 25 км 10/5 1200 м
[Sc Ac und]
-6.1 -18.8 36 -13 -13 995.7 990.2 -9.6 -6.0

 

Местоположение метеостанции Дюмон-д`Юрвиль (Антарктида): широта -66.66 долгота 140.01 высота над уровнем моря 43 м.

В архиве по умолчанию представлена погода на Дюмон-д`Юрвиле за последнюю неделю. Архивные данные за месяц целиком и за предыдущие месяцы, начиная с января 2011 года, Вы можете получить, выбрав интересующий диапазон дат из раскрывающегося списка и нажав кнопку "Ввод!".


*Определитесь, кто Вы:
робот инопланетянин человек

Внимание! Время в таблицах - всемирное. Для получения местного времени необходимо прибавить поправку, которая равна 0 ч.

Смотрите также архив погоды в соседних городах и на ближайших метеорологических станциях:

Погода на D-47 (Антарктида) (98 км)
Погода в Sitry Point (Антарктида) (651 км)
Погода на Mid Point (Антарктида) (691 км)
Погода на Ленинградской (Антарктида) (860 км)
Погода на Dome C II (Антарктида) (1110 км)
Погода на Острове Маккуори (Австралия) (1688 км)

Пояснения к столбцам:

Ветер - указаны скорость ветра в м/с - средняя за 10 мин, порывы в срок и между сроками (в фигурных скобках) и направление, откуда дует ветер: С - северный, СВ - северо-восточный, В - восточный, ЮВ - юго-восточный, Ю - южный, ЮЗ - юго-западный, З - западный, СЗ - северо-западный.
Видимость - горизонтальная дальность видимости в метрах или километрах. При видимости от 1 до 10 км при отсутствии осадков обычно наблюдается дымка, при ухудшении видимости до 1 км и менее - туман. В сухую погоду видимость может ухудшаться дымом, пылью или мглою.
Явления - указаны атмосферные явления, наблюдавшиеся в срок или в последний час перед сроком; фигурными скобками обозначены явления, наблюдавшиеся между сроками (за 1-3 часа до срока); квадратными скобками обозначены град или гололедные отложения с указанием их диаметра в мм.
Облачность - указаны через наклонную черту общая и нижняя облачность в баллах и высота нижней границы облаков в метрах; квадратными скобками обозначены формы облаков: Ci - перистые, Cs - перисто-слоистые, Cc - перисто-кучевые, Ac - высококучевые, As - высокослоистые, Sc - слоисто-кучевые, Ns - слоисто-дождевые, Cu - кучевые, Cb - кучево-дождевые. Подробнее классификацию облаков см. в Атласе облаков (PDF).
T - Температура воздуха - температура, измеренная на высоте 2 м над землей.
Td - Температура точки росы - температура, при понижении до которой содержащийся в воздухе водяной пар достигнет насыщения.
f - Относительная влажность воздуха - влажноcть воздуха, измеренная на высоте 2 м над землей.
Te - Эффективная температура - температура, которую ощущает одетый по сезону человек в тени. Характеристика душности погоды. При расчете учитывается влияние влажности воздуха и скорости ветра на теплоощущения человека.
Tes - Эффективная температура на солнце - температура, которую ощущает человек, с поправкой на солнечный нагрев. Характеристика знойности погоды. Зависит от высоты солнца над горизонтом, облачности и скорости ветра. Ночью, в пасмурную погоду, а также при ветре 12 м/с и более поправка равна нулю.
P - Атмосферное давление - приведенное к уровню моря атмосферное давление.
Po - Атмосферное давление - измеренное на уровне метеостанции атмосферное давление.
Tmin - Минимальная температура - минимум температуры воздуха на высоте 2 м над землей.
Tmax - Максимальная температура - максимум температуры воздуха на высоте 2 м над землей.
R - Количество осадков - Количество выпавших осадков за период времени, мм. При наведении курсора мыши на число - период времени, за который выпало указанное количество осадков.
R24 - Количество осадков - Количество выпавших осадков за 24 часа, мм.
S - Снежный покров - Высота снежного покрова, см. При наведении курсора мыши на число - состояние снежного покрова и степень покрытия местности в баллах.